This demonstration page uses our WeatherBlox Daily Observations layout. Learn more.

39.92423, -83.80882

Hourly Observations for December 5, 2018

Temp ( °F °C ) Dew Point ( °F °C ) Humidity (%) Winds ( mph kmh ) Pressure ( in mb ) Visibility ( mi km ) Precip ( " mm )
12:05 am 00:05 Cloudy with Light Snow 30 -1 27 -3 86 86 WSW 5 7 30.15 1021 9 14.48406 0 0.0254
12:42 am 00:42 Cloudy with Light Snow 30 -1 28 -2 93 93 WSW 3 6 30.12 1020 9 14.48406 0 0.0254
12:56 am 00:56 Cloudy with Light Snow 30 -1.1 28 -2.2 92 92 SW 5 7 30.11 1020 9 14.48406 0 0.0254
1:05 am 01:05 Cloudy with Light Snow 30 -1 28 -2 93 93 SW 5 7 30.12 1020 9 14.48406 0 0.0254
1:18 am 01:18 Cloudy with Light Snow 30 -1 28 -2 93 93 Calm 30.12 1020 9 14.48406 0 0.0254
1:53 am 01:53 Cloudy with Light Snow 30 -1 28 -2 93 93 WSW 3 6 30.12 1020 9 14.48406 0 0.0254
1:56 am 01:56 Cloudy with Light Snow 30 -1.1 28 -2.2 92 92 WSW 6 9 30.09 1019 9 14.48406 0 0.0254
2:38 am 02:38 Cloudy with Light Snow 30 -1 28 -2 93 93 WSW 7 11 30.12 1020 7 11.26538 0 0.0254
2:51 am 02:51 Cloudy with Light Snow 30 -1 28 -2 93 93 WSW 6 9 30.12 1020 7 11.26538 0 0.0254
2:56 am 02:56 Cloudy with Light Snow 30 -1.1 28 -2.2 92 92 WSW 7 11 30.1 1019 5 8.0467 0 0.0254
3:15 am 03:15 Cloudy with Light Snow 30 -1 28 -2 93 93 WSW 7 11 30.12 1020 3 4.82802 0 0.0254
3:23 am 03:23 Cloudy with Light Snow 30 -1 28 -2 93 93 WSW 6 9 30.12 1020 3 4.82802 0 0.0254
3:30 am 03:30 Cloudy with Light Snow 30 -1 28 -2 93 93 WSW 7 11 30.12 1020 3 4.82802 0 0.0254
3:35 am 03:35 Cloudy with Light Snow 28 -2 28 -2 100 100 WSW 6 9 30.12 1020 2.5 4.02335 0 0.0254
3:38 am 03:38 Cloudy with Light Snow 28 -2 28 -2 100 100 WSW 6 9 30.12 1020 2.5 4.02335 0 0.0254
3:45 am 03:45 Cloudy with Light Snow 28 -2 28 -2 100 100 WSW 7 11 30.12 1020 3 4.82802 0 0.0254
3:56 am 03:56 Cloudy with Light Snow 29 -1.7 29 -1.7 100 100 SW 6 9 30.09 1019 3 4.82802 0 0.0254
4:45 am 04:45 Cloudy with Light Snow 28 -2 28 -2 100 100 WSW 6 9 30.12 1020 2.5 4.02335 0 0.0254
4:56 am 04:56 Cloudy with Light Snow 29 -1.7 28 -2.2 96 96 WSW 6 9 30.09 1019 2.5 4.02335 0 0.0254
5:05 am 05:05 Cloudy with Light Snow 28 -2 28 -2 100 100 WSW 6 9 30.12 1020 2 3.21868 0 0.0254
5:24 am 05:24 Cloudy with Light Snow 28 -2 28 -2 100 100 W 6 9 30.12 1020 1.5 2.41401 0 0.0254
5:34 am 05:34 Cloudy with Light Snow 28 -2 28 -2 100 100 WNW 7 11 30.12 1020 2.5 4.02335 0 0.0254
5:56 am 05:56 Cloudy with Light Snow 28 -2.2 27 -2.8 96 96 NW 6 9 30.11 1020 3 4.82802 0 0.0254
6:56 am 06:56 Mostly Cloudy with Scattered Snow Showers 27 -2.8 26 -3.3 96 96 W 5 7 30.13 1020 6 9.65604 0 0.0254
7:51 am 07:51 Cloudy with Light Snow 27 -3 27 -3 100 100 W 7 11 30.15 1021 2 3.21868 0 0.0254
7:56 am 07:56 Cloudy with Light Snow 27 -2.8 27 -2.8 100 100 W 8 13 30.13 1020 2 3.21868 0 0.0254
8:10 am 08:10 Cloudy with Light Snow 27 -3 27 -3 100 100 W 7 11 30.15 1021 2 3.21868 0 0.0254
8:17 am 08:17 Cloudy with Light Snow 28 -2 27 -3 93 93 W 6 9 30.15 1021 2.5 4.02335 0 0.0254
8:22 am 08:22 Cloudy with Light Snow 28 -2 27 -3 93 93 W 7 11 30.15 1021 3 4.82802 0 0.0254
8:54 am 08:54 Cloudy with Light Snow 28 -2 27 -3 93 93 WNW 14 22 30.15 1021 8 12.87472 0 0.0254
8:56 am 08:56 Cloudy with Light Snow 28 -2.2 27 -2.8 96 96 WNW 13 20 30.15 1021 8 12.87472 0 0.0254
9:56 am 09:56 Cloudy with Light Snow 28 -2.2 26 -3.3 92 92 WNW 13 20 30.17 1022 9 14.48406 0 0.0254
10:56 am 10:56 Cloudy 29 -1.7 26 -3.3 89 89 W 12 19 30.19 1022 9 14.48406 0 0.0254
11:16 am 11:16 Cloudy with Light Snow 28 -2 25 -4 86 86 W 14 22 30.21 1023 9 14.48406 0 0.0254
11:56 am 11:56 Cloudy 29 -1.7 25 -3.9 85 85 W 20 31 30.19 1022 10 16.0934 0 0.0254
12:56 pm 12:56 Cloudy 29 -1.7 23 -5 78 78 W 15 24 30.2 1023 10 16.0934 0 0
1:56 pm 13:56 Cloudy with Light Snow 29 -1.7 23 -5 78 78 W 13 20 30.21 1023 9 14.48406 0 0.0254
2:56 pm 14:56 Cloudy 29 -1.7 23 -5 78 78 W 13 20 30.21 1023 10 16.0934 0 0.0254
3:56 pm 15:56 Cloudy with Light Snow 28 -2.2 23 -5 81 81 W 17 28 30.22 1024 9 14.48406 0 0.0254
4:56 pm 16:56 Cloudy with Light Snow 28 -2.2 23 -5 81 81 W 13 20 30.24 1024 9 14.48406 0 0.0254
5:56 pm 17:56 Cloudy with Light Snow 29 -1.7 24 -4.4 82 82 W 14 22 30.26 1025 9 14.48406 0 0.0254
6:56 pm 18:56 Cloudy 29 -1.7 25 -3.9 85 85 W 10 17 30.27 1025 10 16.0934 0 0.0254
7:56 pm 19:56 Cloudy with Light Snow 27 -2.8 23 -5 85 85 W 18 30 30.29 1026 9 14.48406 0 0.0254
8:56 pm 20:56 Cloudy with Light Snow 26 -3.3 21 -6.1 81 81 WSW 13 20 30.29 1026 9 14.48406 0 0.0254
9:56 pm 21:56 Cloudy 27 -2.8 21 -6.1 78 78 W 14 22 30.29 1026 10 16.0934 0 0.0254
10:56 pm 22:56 Cloudy 27 -2.8 22 -5.6 81 81 WSW 10 17 30.3 1026 10 16.0934 0 0
11:56 pm 23:56 Cloudy 27 -2.8 22 -5.6 81 81 SW 10 17 30.3 1026 10 16.0934 0 0

Powered by AerisWeather